Location: Vancouver
(49.2500°N, 123.1330°W)
Time: 18:52:31
(UTC-07:00)

ISS - All Passes

Search period start: 30 June 2015 00:00
Search period end: 10 July 2015 00:00
Orbit: 398 x 403 km, 51.6° (Epoch: 30 June)

Date Brightness Start Highest point End Pass type
(mag) Time Alt. Az. Time Alt. Az. Time Alt. Az.
30 Jun - 09:54:14 10° SSE 09:55:32 12° SE 09:56:56 10° ESE daylight
30 Jun - 11:28:13 10° SW 11:31:25 57° SSE 11:34:37 10° ENE daylight
30 Jun - 13:04:39 10° W 13:07:52 57° N 13:11:05 10° ENE daylight
30 Jun - 14:41:14 10° WNW 14:44:29 68° NNE 14:47:44 10° E daylight
30 Jun - 16:17:46 10° W 16:20:47 36° SSW 16:23:47 10° SE daylight
01 Jul - 10:35:02 10° SW 10:38:03 36° SSE 10:41:04 10° E daylight
01 Jul - 12:11:05 10° W 12:14:20 68° NNW 12:17:35 10° ENE daylight
01 Jul - 13:47:45 10° WNW 13:50:58 57° N 13:54:10 10° E daylight
01 Jul - 15:24:12 10° WNW 15:27:25 57° SSW 15:30:35 10° SE daylight
01 Jul - 17:01:55 10° WSW 17:03:17 12° SW 17:04:34 10° SSW daylight
02 Jul - 09:42:08 10° SSW 09:44:43 22° SE 09:47:21 10° E daylight
02 Jul - 11:17:34 10° WSW 11:20:50 89° NNW 11:24:06 10° ENE daylight
02 Jul - 12:54:12 10° WNW 12:57:25 53° N 13:00:36 10° E daylight
02 Jul - 14:30:42 10° WNW 14:33:57 85° SSW 14:37:12 10° ESE daylight
02 Jul - 16:07:33 10° W 16:10:02 20° SW 16:12:27 10° S daylight
03 Jul - 08:49:45 10° S 08:51:26 14° SE 08:53:11 10° ESE daylight
03 Jul - 10:24:09 10° WSW 10:27:22 63° SSE 10:30:35 10° ENE daylight
03 Jul - 12:00:37 10° W 12:03:50 55° N 12:07:02 10° ENE daylight
03 Jul - 13:37:12 10° WNW 13:40:26 71° NNE 13:43:41 10° E daylight
03 Jul - 15:13:45 10° W 15:16:42 32° SSW 15:19:38 10° SSE daylight
04 Jul - 09:30:52 10° SW 09:33:56 40° SSE 09:37:00 10° ENE daylight
04 Jul - 11:07:01 10° W 11:10:16 64° N 11:13:30 10° ENE daylight
04 Jul - 12:43:40 10° WNW 12:46:53 58° N 12:50:06 10° E daylight
04 Jul - 14:20:07 10° WNW 14:23:18 51° SSW 14:26:27 10° SE daylight
04 Jul - 15:58:20 10° WSW 15:59:08 11° SW 15:59:49 10° SSW daylight
05 Jul - 08:37:50 10° SSW 08:40:33 25° SE 08:43:17 10° E daylight
05 Jul - 10:13:27 10° WSW 10:16:42 83° NNW 10:19:58 10° ENE daylight
05 Jul - 11:50:06 10° WNW 11:53:17 53° N 11:56:29 10° E daylight
05 Jul - 13:26:34 10° WNW 13:29:50 79° SSW 13:33:04 10° ESE daylight
05 Jul - 15:03:32 10° W 15:05:51 18° SW 15:08:07 10° S daylight
06 Jul - 07:45:16 10° S 07:47:13 15° SE 07:49:14 10° E daylight
06 Jul - 09:19:57 10° WSW 09:23:11 69° SSE 09:26:26 10° ENE daylight
06 Jul - 10:56:28 10° W 10:59:40 54° N 11:02:53 10° ENE daylight
06 Jul - 12:33:02 10° WNW 12:36:17 76° NNE 12:39:32 10° ESE daylight
06 Jul - 14:09:37 10° W 14:12:30 29° SW 14:15:21 10° SSE daylight
07 Jul - 08:26:36 10° SW 08:29:42 44° SSE 08:32:50 10° ENE daylight
07 Jul - 10:02:50 10° W 10:06:04 62° N 10:09:18 10° ENE daylight
07 Jul - 11:39:28 10° WNW 11:42:41 60° N 11:45:55 10° E daylight
07 Jul - 13:15:56 10° WNW 13:19:04 47° SSW 13:22:11 10° SE daylight
08 Jul - 07:33:28 10° SSW 07:36:16 27° SE 07:39:07 10° E daylight
08 Jul - 09:09:12 10° WSW 09:12:28 78° NNW 09:15:44 10° ENE daylight
08 Jul - 10:45:51 10° WNW 10:49:03 54° N 10:52:16 10° E daylight
08 Jul - 12:22:19 10° WNW 12:25:34 73° SSW 12:28:48 10° ESE daylight
08 Jul - 13:59:25 10° W 14:01:33 16° SW 14:03:37 10° S daylight
09 Jul - 06:40:43 10° S 06:42:54 17° SE 06:45:07 10° E daylight
09 Jul - 08:15:39 10° WSW 08:18:53 75° SSE 08:22:09 10° ENE daylight
09 Jul - 09:52:12 10° W 09:55:24 54° N 09:58:37 10° ENE daylight
09 Jul - 11:28:44 10° WNW 11:32:00 80° NNE 11:35:15 10° ESE daylight
09 Jul - 13:05:23 10° W 13:08:10 26° SW 13:10:56 10° SSE daylight
